Regional Weather Roundup
Issued by NWS

Home | Current Version | Previous Version | Graphics & Text | Print | Product List | Glossary On
Versions: 1 2 3 4 5 6 7 8 9 10 11 12 13 14 15 16 17 18 19 20 21 22 23 24 25 26 27 28 29 30 31 32 33 34 35 36 37 38 39 40 41 42 43 44 45 46 47 48 49 50
000
ASUS43 KOAX 300810
RWRNE

WEATHER ROUNDUP FOR NEBRASKA
NATIONAL WEATHER SERVICE OMAHA NE
300 AM CDT TUE SEP 30 2014

NOTES: SATELLITE DATA IS BEING USED TO AUGMENT CLOUD COVER ABOVE
       12000 FEET.
       "FAIR" INDICATES FEW OR NO CLOUDS BELOW 12,000 FEET WITH NO
       SIGNIFICANT WEATHER AND/OR OBSTRUCTIONS TO VISIBILITY.

  * THESE STATIONS DO NOT REPORT WEATHER SUCH AS RAIN...SNOW OR FOG.

NEZ001>004-019>022-054>056-300900-
NEBRASKA PANHANDLE

CITY           SKY/WX    TMP DP  RH WIND       PRES   REMARKS
SCOTTSBLUFF    RAIN      50  49  96 W20G32    29.69R FOG
ALLIANCE       LGT RAIN  51  49  92 SW44G64   29.52F FOG
CHADRON        LGT RAIN  54  53  97 CALM      29.56F
KIMBALL        LGT RAIN  47  46  95 W14       29.74F
SIDNEY         CLOUDY    50  45  83 W18G29    29.76R
$$

NEZ057>060-069>072-079>082-300900-
SOUTHWEST NEBRASKA

CITY           SKY/WX    TMP DP  RH WIND       PRES   REMARKS
NORTH PLATTE   MOCLDY    58  56  93 SE8       29.75F
IMPERIAL       PTCLDY    55  50  83 W14G22    29.78R
LEXINGTON      CLOUDY    61  58  89 SE8       29.79S
MCCOOK         CLEAR     61  57  87 S20G29    29.78F
OGALLALA       PTCLDY    55  53  91 W15G26    29.72S
$$

NEZ005>010-023>029-035>040-094-300900-
NORTH CENTRAL NEBRASKA

CITY           SKY/WX    TMP DP  RH WIND       PRES   REMARKS
VALENTINE      CLOUDY    60  55  83 SE17      29.71F
AINSWORTH      LGT RAIN  64  56  73 SE15G21   29.75F
BROKEN BOW     CLOUDY    65  57  75 SE9       29.77F
O`NEILL        CLOUDY    65  59  80 SE15      29.81F
ORD            MOCLDY    66  56  70 SE10      29.78F
THEDFORD       RAIN      60  57  92 SE12G18   29.73F
$$

NEZ041-046>049-061>064-073>077-083>087-300900-
SOUTH CENTRAL NEBRASKA

CITY           SKY/WX    TMP DP  RH WIND       PRES   REMARKS
GRAND ISLAND   MOCLDY    67  57  70 SE13      29.83F
AURORA         MOCLDY    65  57  75 SE9       29.85F
HASTINGS       CLOUDY    69  54  58 S13G23    29.84F
HEBRON         MOCLDY    66  57  72 SE9       29.87F
HOLDREGE       CLOUDY    67  55  66 SE17      29.80S
KEARNEY *      CLOUDY    66  55  68 SE15      29.82R
YORK           PTCLDY    63  59  88 SE9       29.88F
$$

NEZ011>018-030>034-042>045-300900-
NORTHEAST NEBRASKA

CITY           SKY/WX    TMP DP  RH WIND       PRES   REMARKS
NORFOLK        CLOUDY    62  60  93 E12       29.88F
ALBION         MOCLDY    63  55  77 SE10      29.85F
BLAIR          MOCLDY    63  60  90 E9        29.93F
COLUMBUS *     PTCLDY    61  55  82 E6        29.89F
FREMONT        PTCLDY    64  60  86 E8        29.92F
TEKAMAH        CLOUDY    61  59  93 E3        29.93F FOG
WAYNE          CLOUDY    61  60  95 SE12G20   29.91F
$$

NEZ050>053-065>068-078-088>093-300900-
SOUTHEAST NEBRASKA

CITY           SKY/WX    TMP DP  RH WIND       PRES   REMARKS
LINCOLN        PTCLDY    65  58  78 S8        29.90F
OMAHA EPPLEY   MOCLDY    64  59  83 E7        29.94F
BEATRICE       MOCLDY    66  58  76 SE7       29.90F
FALLS CITY     PTCLDY    62  58  86 SE5       29.93F
NEBRASKA CITY  PTCLDY    62  55  76 S5        29.93F
PLATTSMOUTH    PTCLDY    61  54  78 E7        29.93F
$$

NEZ044-045-051>053-067-300900-
OMAHA AREA

CITY           SKY/WX    TMP DP  RH WIND       PRES   REMARKS
OMAHA EPPLEY   MOCLDY    64  59  83 E7        29.94F
BLAIR          MOCLDY    63  60  90 E9        29.93F
FREMONT        PTCLDY    64  60  86 E8        29.92F
MILLARD        PTCLDY    64  59  82 SE3       29.92F
OFFUTT AFB     PTCLDY    61  61 100 NE8       29.92F
PLATTSMOUTH    PTCLDY    61  54  78 E7        29.93F
WAHOO          PTSUNNY   60  55  83 E5        29.91F
$$


USA.gov is the U.S. government's official web portal to all federal, state and local government web resources and services.